Hourly Data Report for February 01, 2020

TORONTO CITY
ONTARIO
Current Station Operator: ECCC - MSC

43°40'00.000" N
79°24'00.000" W
112.50 m
6158355
71508
XTO

Download Data

Hourly Data (February 2020)
Hourly Data Report for February 1, 2020
TIME
LST
Temp Definition
°C
Dew Point Definition
°C
Rel Hum Definition
%
Precip. Amount Definition
mm

Wind Dir Definition
10's deg

Wind Spd Definition
km/h
Visibility Definition
km
Stn Press Definition
kPa
Hmdx Definition


Wind Chill Definition


Weather Definition


00:00 -0.8 -3.7 81 0.0       100.59     LegendNANA
01:00 -1.0 -3.8 81 0.0       100.55     LegendNANA
02:00 -1.4 -4.1 82 0.0       100.49     LegendNANA
03:00 -1.9 -4.4 83 0.0       100.45     LegendNANA
04:00 -1.1 -4.2 80 0.0       100.42     LegendNANA
05:00 -1.2 -4.6 78 0.0       100.36     LegendNANA
06:00 -1.1 -4.7 77 0.0       100.30     LegendNANA
07:00 -0.9 -5.0 74 0.0       100.27     LegendNANA
08:00 -0.7 -4.4 76 0.0       100.25     LegendNANA
09:00 -0.3 -3.9 76 0.0       100.20     LegendNANA
10:00 0.0 -3.9 75 0.0       100.16     LegendNANA
11:00 0.3 -4.4 71 0.0       100.08     LegendNANA
12:00 0.8 -4.9 66 0.0       99.97     LegendNANA
13:00 0.7 -4.1 70 0.0       99.84     LegendNANA
14:00 1.2 -4.0 68 0.0       99.69     LegendNANA
15:00 0.7 -4.9 66 0.0       99.59     LegendNANA
16:00 0.4 -3.5 75 0.0       99.52     LegendNANA
17:00 0.0 -2.7 82 0.0       99.45     LegendNANA
18:00 -0.2 -2.2 87 0.3       99.41     LegendNANA
19:00 -0.5 -2.0 90 0.4       99.38     LegendNANA
20:00 -0.4 -1.7 91 0.5       99.33     LegendNANA
21:00 -0.3 -1.7 90 0.2       99.25     LegendNANA
22:00 -0.2 -1.7 90 0.5       99.16     LegendNANA
23:00 0.2 -1.5 88 0.0       99.12     LegendNANA

Notes on Data Quality.

Legend

  • E = Estimated
  • M = Missing
  • NA = Not Available*
  • [empty] = Indicates an unobserved value
Date modified: